Aeroporto :
LOGIN :

Iscrizione | Disclaimer

   EN    FR    IT 

 










Sommario :    VFR   VFR Marginale   IFR   IFR Intensivo   IFR Molto Intensivo
Visibilità : 
Base nubi : 
>= 8 km
>= 3000ft
5 / 8 km
1000 / 3000 ft
1500m / 5 km
500 / 1000 ft
800 / 1500m
200 / 500 ft
< 800m
< 200 ft
Simboli :   Temporali  Nebbia  Neve Forte  Precipitazioni Forti  Vento > 20 kt
SIGMETs :   Varie  Temporali  Ghiacco  Turbolenza  Onda orograficha  Ceneri Vulcaniche







- Altitudine del aeroporto : 156 ft
- Codice IATA : LCC


LIBN - Lecce Galatine (military)

ULTIMO METAR :
  • 161155Z 34010KT CAVOK 32/19 Q1012 RMK FEW FEW200 VIS MIN 9999 WIND THR14 35011KT WIND THR32 35010KT BLU

METARs OBSOLETI :
  • 161055Z 34008KT CAVOK 32/18 Q1012 RMK FEW FEW200 VIS MIN 9999 WIND THR14 34006KT WIND THR32 35007KT BLU
  • 160955Z 32008KT CAVOK 31/19 Q1012 RMK FEW FEW200 VIS MIN 9999 WIND THR14 33009KT WIND THR32 33010KT BLU

TAF TAF LIBN
Valido dal 16 a 09 ore il 16 a 18 ore UTC


160800Z 1609/1618 34012KT CAVOK
Nessun NOTAM noto per questo aeroporto.



MetMap, La meteo Aeronautica in un colpo d'occhio ! - Copyright ORBIFLY Dicembre 2007 - Disclaimer

ORBIFLY MET'MAP TEAM :

Programmazione e sviluppo : Alexandra Zaïnal
Concezione e sviluppo : Baudouin d'Aumeries
Co-Programmazione e sviluppo : Marc-Olivier Méhu
Supporto tecnico e logistico : Manuel Goepfert
Aiuto per la traduzione : Arnaldo La Scala

Contatto : metmap@orbifly.com




FONTI E CREDITI :

   NOAA